Weather History for Albert Lea, MN

Change the Weather History Date:

Saturday, September 22, 2012

  Actual Average Record
Temperature  
Mean Temperature 46 °F -  
Max Temperature 57 °F 67 °F 82 °F (2004)
Min Temperature 35 °F 45 °F 35 °F (2012)
Degree Days  
Heating Degree Days 19    
Moisture  
Dew Point 30 °F    
Average Humidity 56    
Maximum Humidity 76    
Minimum Humidity 33    
Precipitation  
Precipitation 0.00 in - - ()
Sea Level Pressure  
Sea Level Pressure 30.12 in    
Wind  
Wind Speed 11 mph (NW)    
Max Wind Speed 20 mph    
Max Gust Speed 31 mph    
Visibility 10 miles    
Events      
Averages and records for this station are not official NWS values.
T = Trace of Precipitation, MM = Missing Value Source: NWS Daily Summary

Daily Weather History Graph

Daily Weather History Graph

Search for Another Location

Airport:

Trip Planner

Search our weather history database for the weather conditions in past years. The results will help you decide how hot, cold, wet, or windy it might be!

Date:

Astronomy

Sep. 22, 2012 Rise Set
Actual Time 7:01 AM CDT 7:09 PM CDT
Civil Twilight 6:32 AM CDT 7:38 PM CDT
Nautical Twilight 5:59 AM CDT 8:12 PM CDT
Astronomical Twilight 5:24 AM CDT 8:46 PM CDT
Moon 2:31 PM CDT (9/22) No Moon Set
Length of Visible Light 13h 05m
Length of Day
12h 08m
Waxing Crescent, 49% of the Moon is Illuminated
Sep 22
Waxing Crescent
Sep 22
First Quarter
Sep 29
Full
Oct 8
Last Quarter
Oct 15
New

Hourly Weather History & Observations

Time (CDT) Temp. Windchill Dew Point Humidity Pressure Visibility Wind Dir Wind Speed Gust Speed Precip Events Conditions
12:14 AM 50.0 °F - 35.6 °F 58% 29.88 in 10.0 mi NNW 19.6 mph 29.9 mph N/A   Clear
12:33 AM 46.4 °F 39.8 °F 37.4 °F 71% 29.88 in 10.0 mi NNW 16.1 mph 31.1 mph N/A   Clear
12:53 AM 46.4 °F 39.2 °F 33.8 °F 62% 29.89 in 10.0 mi NNW 18.4 mph 27.6 mph N/A   Clear
1:14 AM 44.6 °F 37.4 °F 30.2 °F 57% 29.92 in 10.0 mi NNW 16.1 mph 26.5 mph N/A   Clear
1:33 AM 42.8 °F 35.1 °F 26.6 °F 53% 29.93 in 10.0 mi NNW 16.1 mph 24.2 mph N/A   Clear
1:53 AM 42.8 °F 37.0 °F 24.8 °F 49% 29.95 in 10.0 mi NNW 10.4 mph 23.0 mph N/A   Clear
2:13 AM 41.0 °F 33.5 °F 24.8 °F 53% 29.95 in 10.0 mi NNW 13.8 mph 23.0 mph N/A   Clear
2:33 AM 39.2 °F 32.5 °F 26.6 °F 61% 29.96 in 10.0 mi NNW 10.4 mph - N/A   Clear
2:54 AM 39.2 °F 33.0 °F 24.8 °F 56% 29.97 in 10.0 mi NW 9.2 mph - N/A   Clear
3:13 AM 39.2 °F 33.6 °F 24.8 °F 56% 29.97 in 10.0 mi NW 8.1 mph - N/A   Clear
3:33 AM 37.4 °F 30.3 °F 26.6 °F 65% 29.98 in 10.0 mi WNW 10.4 mph 16.1 mph N/A   Clear
3:54 AM 37.4 °F 31.4 °F 26.6 °F 65% 29.99 in 10.0 mi NW 8.1 mph - N/A   Clear
4:13 AM 37.4 °F 31.4 °F 26.6 °F 65% 29.99 in 10.0 mi NW 8.1 mph 17.3 mph N/A   Clear
4:33 AM 37.4 °F 31.4 °F 26.6 °F 65% 29.99 in 10.0 mi WNW 8.1 mph - N/A   Clear
4:54 AM 37.4 °F 30.8 °F 26.6 °F 65% 30.00 in 10.0 mi NW 9.2 mph 17.3 mph N/A   Clear
5:13 AM 37.4 °F 29.8 °F 26.6 °F 65% 30.01 in 10.0 mi NW 11.5 mph 18.4 mph N/A   Clear
5:33 AM 37.4 °F 29.8 °F 26.6 °F 65% 30.02 in 10.0 mi WNW 11.5 mph 18.4 mph N/A   Clear
5:54 AM 35.6 °F 28.0 °F 26.6 °F 70% 30.02 in 10.0 mi WNW 10.4 mph 17.3 mph N/A   Clear
6:13 AM 35.6 °F 29.2 °F 28.4 °F 75% 30.03 in 10.0 mi NW 8.1 mph - N/A   Clear
6:33 AM 35.6 °F 28.6 °F 28.4 °F 75% 30.04 in 10.0 mi NW 9.2 mph - N/A   Clear
6:53 AM 35.6 °F 29.2 °F 28.4 °F 75% 30.05 in 10.0 mi NW 8.1 mph - N/A   Mostly Cloudy
7:13 AM 37.4 °F 32.8 °F 28.4 °F 70% 30.07 in 10.0 mi WNW 5.8 mph - N/A   Overcast
7:33 AM 37.4 °F 32.1 °F 30.2 °F 75% 30.08 in 10.0 mi WNW 6.9 mph - N/A   Overcast
7:53 AM 37.4 °F 32.8 °F 30.2 °F 75% 30.09 in 10.0 mi WNW 5.8 mph - N/A   Overcast
8:13 AM 37.4 °F 31.4 °F 30.2 °F 75% 30.10 in 10.0 mi WNW 8.1 mph - N/A   Overcast
8:33 AM 39.2 °F 34.2 °F 30.2 °F 70% 30.11 in 10.0 mi WNW 6.9 mph - N/A   Overcast
8:53 AM 39.2 °F 35.0 °F 32.0 °F 75% 30.12 in 10.0 mi NW 5.8 mph - N/A   Overcast
9:13 AM 42.8 °F 38.0 °F 33.8 °F 70% 30.13 in 10.0 mi NW 8.1 mph 16.1 mph N/A   Overcast
9:53 AM 44.6 °F 37.2 °F 35.6 °F 71% 30.15 in 10.0 mi NNW 17.3 mph 24.2 mph N/A   Overcast
10:13 AM 44.6 °F 38.8 °F 35.6 °F 71% 30.16 in 10.0 mi NNW 11.5 mph 20.7 mph N/A   Overcast
10:33 AM 44.6 °F 40.2 °F 37.4 °F 76% 30.16 in 10.0 mi NNW 8.1 mph 19.6 mph N/A   Overcast
10:53 AM 44.6 °F 38.4 °F 37.4 °F 76% 30.17 in 10.0 mi North 12.7 mph 17.3 mph N/A   Overcast
11:14 AM 48.2 °F - 37.4 °F 66% 30.17 in 10.0 mi NNW 10.4 mph - N/A   Overcast
11:33 AM 48.2 °F - 37.4 °F 66% 30.17 in 10.0 mi NNW 10.4 mph - N/A   Overcast
11:53 AM 48.2 °F - 37.4 °F 66% 30.17 in 10.0 mi NNW 11.5 mph 18.4 mph N/A   Overcast
12:14 PM 50.0 °F - 37.4 °F 62% 30.18 in 10.0 mi NNW 13.8 mph 20.7 mph N/A   Overcast
12:33 PM 51.8 °F - 35.6 °F 54% 30.18 in 10.0 mi North 11.5 mph 19.6 mph N/A   Overcast
12:53 PM 51.8 °F - 35.6 °F 54% 30.18 in 10.0 mi North 13.8 mph 17.3 mph N/A   Overcast
1:14 PM 51.8 °F - 35.6 °F 54% 30.19 in 10.0 mi NNW 10.4 mph 21.9 mph N/A   Overcast
1:33 PM 51.8 °F - 35.6 °F 54% 30.19 in 10.0 mi NNW 9.2 mph 17.3 mph N/A   Overcast
1:54 PM 51.8 °F - 35.6 °F 54% 30.19 in 10.0 mi North 11.5 mph 17.3 mph N/A   Overcast
2:13 PM 53.6 °F - 35.6 °F 51% 30.19 in 10.0 mi NNW 6.9 mph 17.3 mph N/A   Overcast
2:33 PM 53.6 °F - 33.8 °F 47% 30.19 in 10.0 mi NNW 8.1 mph - N/A   Overcast
2:53 PM 53.6 °F - 33.8 °F 47% 30.19 in 10.0 mi NNW 10.4 mph 16.1 mph N/A   Overcast
3:13 PM 55.4 °F - 33.8 °F 44% 30.18 in 10.0 mi NW 11.5 mph 18.4 mph N/A   Mostly Cloudy
3:33 PM 53.6 °F - 33.8 °F 47% 30.19 in 10.0 mi NW 6.9 mph - N/A   Mostly Cloudy
3:54 PM 57.2 °F - 33.8 °F 41% 30.19 in 10.0 mi NW 5.8 mph - N/A   Mostly Cloudy
4:13 PM 55.4 °F - 32.0 °F 41% 30.19 in 10.0 mi WNW 8.1 mph - N/A   Scattered Clouds
4:33 PM 57.2 °F - 30.2 °F 36% 30.18 in 10.0 mi WNW 10.4 mph 18.4 mph N/A   Mostly Cloudy
4:53 PM 57.2 °F - 28.4 °F 33% 30.18 in 10.0 mi WNW 11.5 mph 17.3 mph N/A   Mostly Cloudy
5:14 PM 55.4 °F - 28.4 °F 36% 30.18 in 10.0 mi WNW 8.1 mph 16.1 mph N/A   Mostly Cloudy
5:33 PM 55.4 °F - 28.4 °F 36% 30.19 in 10.0 mi WNW 10.4 mph - N/A   Mostly Cloudy
5:54 PM 55.4 °F - 26.6 °F 33% 30.19 in 10.0 mi WNW 11.5 mph - N/A   Scattered Clouds
6:13 PM 55.4 °F - 26.6 °F 33% 30.19 in 10.0 mi NNW 5.8 mph - N/A   Scattered Clouds
6:34 PM 53.6 °F - 28.4 °F 38% 30.19 in 10.0 mi Calm Calm - N/A   Scattered Clouds
6:53 PM 53.6 °F - 26.6 °F 35% 30.19 in 10.0 mi NW 6.9 mph 16.1 mph N/A   Scattered Clouds
7:13 PM 51.8 °F - 26.6 °F 38% 30.19 in 10.0 mi NW 5.8 mph - N/A   Clear
7:33 PM 50.0 °F - 26.6 °F 40% 30.19 in 10.0 mi WNW 3.5 mph - N/A   Clear
7:53 PM 48.2 °F - 26.6 °F 43% 30.20 in 10.0 mi NW 4.6 mph - N/A   Clear
8:14 PM 48.2 °F - 26.6 °F 43% 30.20 in 10.0 mi NW 4.6 mph - N/A   Clear
8:33 PM 46.4 °F 44.3 °F 26.6 °F 46% 30.21 in 10.0 mi WNW 4.6 mph - N/A   Clear
8:53 PM 46.4 °F 43.5 °F 26.6 °F 46% 30.21 in 10.0 mi WNW 5.8 mph - N/A   Clear
9:13 PM 44.6 °F 40.7 °F 26.6 °F 49% 30.21 in 10.0 mi WNW 6.9 mph - N/A   Clear
9:33 PM 44.6 °F 40.7 °F 26.6 °F 49% 30.21 in 10.0 mi WNW 6.9 mph - N/A   Clear
9:53 PM 42.8 °F 39.3 °F 26.6 °F 53% 30.22 in 10.0 mi WNW 5.8 mph - N/A   Clear
10:13 PM 42.8 °F 40.1 °F 26.6 °F 53% 30.22 in 10.0 mi WNW 4.6 mph - N/A   Clear
10:33 PM 42.8 °F 40.1 °F 26.6 °F 53% 30.23 in 10.0 mi WNW 4.6 mph - N/A   Clear
10:53 PM 41.0 °F 38.0 °F 26.6 °F 57% 30.24 in 10.0 mi WNW 4.6 mph - N/A   Clear
11:13 PM 41.0 °F 39.0 °F 26.6 °F 57% 30.24 in 10.0 mi WNW 3.5 mph - N/A   Clear
11:33 PM 41.0 °F 39.0 °F 28.4 °F 61% 30.25 in 10.0 mi WNW 3.5 mph - N/A   Clear
11:53 PM 39.2 °F 37.0 °F 28.4 °F 65% 30.25 in 10.0 mi WNW 3.5 mph - N/A   Clear